Regional Weather Roundup
Issued by NWS

Home | Current Version | Previous Version | Text Only | Print | Product List | Glossary On
Versions: 1 2 3 4 5 6 7 8 9 10 11 12 13 14 15 16 17 18 19 20 21 22 23 24 25 26 27 28 29 30 31 32 33 34 35 36 37 38 39 40 41 42 43 44 45 46 47 48 49 50
831
ASUS44 KJAN 301310
RWRMS

MISSISSIPPI HOURLY WEATHER ROUNDUP
NATIONAL WEATHER SERVICE JACKSON MS
800 AM CDT WED JUL 30 2014

NOTE: "FAIR: INDICATES FEW OR NO CLOUDS BELOW 12,000 FEET WITH NO
SIGNIFICANT WEATHER AND/OR OBSTRUCTIONS TO VISIBILITY.

MSZ001>002-007>008-010>013-018>021-025>028-034>036-301400-
NORTHWEST MISSISSIPPI

CITY           SKY/WX    TMP DP  RH WIND       PRES   REMARKS
CLARKSDALE     FAIR      64  64 100 CALM      30.14R
CLEVELAND      FAIR      66  64  92 CALM      30.12R
GREENWOOD      SUNNY     66  60  81 NE3       30.13R
GREENVILLE     MOSUNNY   68  64  87 CALM      30.12R
GRENADA        FAIR      61  59  94 CALM      30.13S
OLIVE BRANCH   MOSUNNY   66  63  88 CALM      30.13R
OXFORD         FAIR      64  57  77 CALM      30.14R
TUNICA         PTSUNNY   64  63  94 CALM      30.13S
$$

MSZ003>006-009-014>017-022>024-029>033-037>039-301400-
NORTHEAST MISSISSIPPI

CITY           SKY/WX    TMP DP  RH WIND       PRES   REMARKS
BELMONT        FAIR      62  58  88 CALM      30.12R
COLUMBUS AFB   MOSUNNY   62  60  90 NW2       30.12R
CORINTH        FAIR      61  57  88 CALM      30.12S
GOLDN TRIANGLE SUNNY     61  55  82 NW3       30.12R
STARKVILLE     FAIR      61  57  88 CALM      30.12S
TUPELO         MOSUNNY   65  57  75 NE6       30.12R
$$

MSZ040-058-301400-
CENTRAL MISSISSIPPI

CITY           SKY/WX    TMP DP  RH WIND       PRES   REMARKS
JACKSON INTL   MOSUNNY   69  60  73 NE3       30.12R
JACKSON HAWKNS SUNNY     69  59  70 NE3       30.12R
MERIDIAN KEY   SUNNY     64  59  83 N3        30.12R
MERIDIAN NAS   MOSUNNY   63  58  83 CALM      30.12R
RAYMOND        FAIR      64  61  88 CALM      30.12R
VICKSBURG      SUNNY     68  64  87 CALM      30.12R
$$

MSZ059>079-301400-
SOUTH MISSISSIPPI

CITY           SKY/WX    TMP DP  RH WIND       PRES   REMARKS
BROOKHAVEN     FAIR      66  63  88 CALM      30.14R
COLUMBIA       FAIR      66  61  82 CALM      30.09R
HATTIESBURG    SUNNY     69  60  73 N5        30.10R
MCCOMB         SUNNY     69  59  70 N5        30.11R
NATCHEZ        SUNNY     70  61  73 SE3       30.12S
PINE BELT      SUNNY     68  57  68 N7        30.11R
$$

MSZ080>082-301400-
COASTAL MISSISSIPPI

CITY           SKY/WX    TMP DP  RH WIND       PRES   REMARKS
BAY ST LOUIS   SUNNY    N/A N/A N/A CALM      30.08R
BILOXI         SUNNY     72  59  63 NE9       30.06S
PASCAGOULA     SUNNY     71  59  65 N6        30.06S
GULFPORT       SUNNY     75  59  57 N6        30.06R
$$



USA.gov is the U.S. government's official web portal to all federal, state and local government web resources and services.